| time (UTC) | temp F | wind direction | speed MPH | gust MPH | rain 1hr in | rain 24hr in | rain mn in | humidity % | barometer mb |
| 20260903233045 | 75 | 0 | 0.0 | 0.0 | 0.00 | 1.04 | 0.64 | 66 | 1013.5 |
| 20260903211539 | 86 | 0 | 0.0 | 1.0 | 0.00 | 1.05 | 0.64 | 53 | 1012.8 |
| 20260903183042 | 88 | 268 | 0.0 | 4.0 | 0.00 | 1.07 | 0.64 | 51 | 1014.0 |
| 20260903173038 | 85 | 0 | 0.0 | 5.0 | 0.00 | 1.07 | 0.64 | 44 | 1014.4 |
| 20260903164539 | 84 | 198 | 0.0 | 3.0 | 0.00 | 1.08 | 0.64 | 47 | 1014.8 |
| 20260903153038 | 76 | 210 | 0.0 | 1.0 | 0.00 | 1.08 | 0.64 | 55 | 1016.2 |
| 20260903143102 | 73 | 0 | 0.0 | 2.0 | 0.00 | 1.08 | 0.64 | 60 | 1016.7 |
| 20260903133039 | 71 | 0 | 0.0 | 3.0 | 0.00 | 1.08 | 0.64 | 65 | 1015.7 |
| 20260903130039 | 69 | 0 | 0.0 | 1.0 | 0.00 | 1.08 | 0.64 | 66 | 1016.4 |
| 20260903120038 | 67 | 0 | 0.0 | 0.0 | 0.00 | 1.09 | 0.64 | 66 | 1015.6 |
| 20260903104537 | 65 | 0 | 0.0 | 1.0 | 0.01 | 1.12 | 0.64 | 66 | 1016.0 |
| 20260903100038 | 65 | 0 | 0.0 | 0.0 | 0.02 | 1.12 | 0.64 | 66 | 1016.7 |
| 20260903091539 | 64 | 0 | 0.0 | 0.0 | 0.01 | 1.11 | 0.62 | 66 | 1016.0 |
| 20260903073039 | 65 | 0 | 0.0 | 1.0 | 0.29 | 1.09 | 0.60 | 66 | 1017.0 |
| 20260903063038 | 65 | 0 | 0.0 | 0.0 | 0.05 | 0.80 | 0.31 | 66 | 1017.2 |
| 20260903054541 | 65 | 0 | 0.0 | 0.0 | 0.16 | 0.78 | 0.29 | 66 | 1018.4 |
| 20260903053038 | 65 | 0 | 0.0 | 0.0 | 0.17 | 0.75 | 0.26 | 66 | 1017.8 |
| 20260903050039 | 65 | 0 | 0.0 | 0.0 | 0.16 | 0.66 | 0.17 | 66 | 1018.8 |
| 20260903044540 | 65 | 0 | 0.0 | 0.0 | 0.16 | 0.62 | 0.13 | 66 | 1019.1 |
| 20260903040038 | 66 | 0 | 0.0 | 0.0 | 0.32 | 0.49 | 0.00 | 66 | 1019.5 |
| 20260903030039 | 66 | 0 | 0.0 | 0.0 | 0.09 | 0.17 | 0.17 | 66 | 1019.3 |
| 20260903024537 | 66 | 0 | 0.0 | 0.0 | 0.04 | 0.12 | 0.12 | 66 | 1019.1 |
| 20260903020050 | 66 | 0 | 0.0 | 1.0 | 0.00 | 0.08 | 0.08 | 66 | 1018.8 |
| 20260903011540 | 66 | 185 | 0.0 | 2.0 | 0.00 | 0.09 | 0.08 | 66 | 1018.7 |
| 20260903001539 | 66 | 0 | 0.0 | 4.0 | 0.00 | 0.09 | 0.08 | 65 | 1018.9 |